TimeCDT,TemperatureF,Dew PointF,Humidity,Sea Level PressureIn,VisibilityMPH,Wind Direction,Wind SpeedMPH,Gust SpeedMPH,PrecipitationIn,Events,Conditions,WindDirDegrees,DateUTC
12:53 AM,27.0,21.9,81,30.61,10.0,Calm,Calm,-,N/A,,Clear,0,2013-05-02 05:53:00
1:53 AM,23.0,19.9,88,30.62,10.0,NW,5.8,-,N/A,,Clear,320,2013-05-02 06:53:00
2:53 AM,25.0,21.0,85,30.63,10.0,NNW,3.5,-,N/A,,Clear,340,2013-05-02 07:53:00
3:53 AM,24.1,21.0,88,30.63,10.0,North,5.8,-,N/A,,Clear,350,2013-05-02 08:53:00
4:53 AM,21.9,19.0,89,30.64,10.0,NNW,4.6,-,N/A,,Clear,340,2013-05-02 09:53:00
5:53 AM,21.0,18.0,88,30.65,10.0,NNW,5.8,-,N/A,,Partly Cloudy,330,2013-05-02 10:53:00
6:08 AM,23.0,19.4,86,30.58,10.0,NNW,8.1,-,N/A,,Mostly Cloudy,330,2013-05-02 11:08:00
6:16 AM,24.8,19.4,80,30.58,10.0,NNW,6.9,-,N/A,,Scattered Clouds,340,2013-05-02 11:16:00
6:23 AM,24.8,19.4,80,30.58,10.0,NNW,8.1,-,N/A,,Mostly Cloudy,330,2013-05-02 11:23:00
6:31 AM,24.8,19.4,80,30.58,10.0,NNW,8.1,-,N/A,,Partly Cloudy,330,2013-05-02 11:31:00
6:53 AM,25.0,21.0,85,30.67,10.0,NNW,9.2,-,N/A,,Clear,340,2013-05-02 11:53:00
7:53 AM,26.1,21.0,81,30.68,10.0,NNW,10.4,-,N/A,,Clear,340,2013-05-02 12:53:00
8:39 AM,28.4,21.2,74,30.61,10.0,NNW,10.4,-,N/A,,Mostly Cloudy,330,2013-05-02 13:39:00
8:53 AM,28.9,21.0,72,30.68,10.0,NNW,12.7,-,N/A,,Overcast,330,2013-05-02 13:53:00
9:53 AM,30.0,19.0,64,30.68,10.0,North,15.0,-,N/A,,Overcast,360,2013-05-02 14:53:00
10:53 AM,33.1,18.0,54,30.67,10.0,North,12.7,-,N/A,,Mostly Cloudy,350,2013-05-02 15:53:00
11:09 AM,33.8,17.6,52,30.60,10.0,North,12.7,-,N/A,,Mostly Cloudy,360,2013-05-02 16:09:00
11:53 AM,35.1,19.0,52,30.66,10.0,North,13.8,21.9,N/A,,Overcast,360,2013-05-02 16:53:00
12:53 PM,35.1,19.0,52,30.65,10.0,North,9.2,-,N/A,,Overcast,350,2013-05-02 17:53:00
1:53 PM,35.1,19.0,52,30.63,10.0,North,13.8,-,N/A,,Overcast,10,2013-05-02 18:53:00
2:53 PM,35.1,19.0,52,30.62,10.0,North,16.1,-,N/A,,Overcast,10,2013-05-02 19:53:00
3:53 PM,35.1,19.9,54,30.61,10.0,North,9.2,-,N/A,,Overcast,360,2013-05-02 20:53:00
4:53 PM,36.0,19.0,50,30.60,10.0,NNW,15.0,19.6,N/A,,Mostly Cloudy,330,2013-05-02 21:53:00
5:53 PM,34.0,19.0,54,30.60,10.0,North,11.5,-,N/A,,Overcast,10,2013-05-02 22:53:00
6:53 PM,34.0,19.0,54,30.58,10.0,North,13.8,-,N/A,,Mostly Cloudy,360,2013-05-02 23:53:00
7:53 PM,34.0,18.0,52,30.58,10.0,North,10.4,-,N/A,,Mostly Cloudy,360,2013-05-03 00:53:00
8:53 PM,33.1,18.0,54,30.59,10.0,North,13.8,-,N/A,,Overcast,360,2013-05-03 01:53:00
9:53 PM,32.0,19.0,59,30.58,10.0,North,12.7,18.4,N/A,,Overcast,360,2013-05-03 02:53:00
10:31 PM,32.0,19.4,60,30.51,10.0,North,9.2,-,N/A,,Overcast,10,2013-05-03 03:31:00
10:53 PM,32.0,19.9,61,30.56,10.0,North,10.4,-,N/A,,Overcast,10,2013-05-03 03:53:00
11:53 PM,32.0,19.0,59,30.55,10.0,NNE,8.1,-,N/A,,Overcast,30,2013-05-03 04:53:00